星链-4462 (STARLINK-4462 )

导读 | 豆包AI

STARLINK-4462是美国SpaceX公司于2022年9月11日发射的星链(Starlink)低轨通信卫星,属于全球卫星互联网星座组网的一部分。星链卫星采用平板设计,单星重约227千克,配备氪工质霍尔推进器,支持自主避撞,运行于近地轨道,使用Ku/Ka波段提供宽带互联网服务,设计寿命5至7年,退役后会主动离轨再入大气层焚毁。

基本信息
目录编号:
53781
目录名称:
STARLINK-4462
国际标识:
2022-111J
轨道中心:
EARTH
卫星名称:
星链-4462
卫星全名:
星链-4462 (STARLINK-4462 )
卫星状态:
在轨 (已飞行1281 天)
发射日期:
2022-09-11 UTC
国别 :
美国 (US)
星等 :
--
轨道信息
数据来源 国际轨道数据 AOE轨道数据
星历时间 2026-03-15T05:44:20+0800
10小时前
查看轨道信息
2026-03-12T11:00:00+0800
3天前
查看轨道信息
半长轴 6917.873km 6917.787km
偏心率 0.0001415 0.0002322
轨道倾角 53.215° 53.219°
近地点辐角 94.540° 97.494°
升交点赤经 250.704° 263.192°
平近点角 265.576° 269.631°
近地点 538.757km 538.043km
远地点 540.715km 541.257km
周期 95.437分钟 95.436分钟
每日圈数 15.088427 15.088708
详细信息
固有亮度:
5
最大亮度:
2.5
卫星平台:
Starlink v1.5
覆盖范围:
全球
运营商:
太空探索技术公司
运营商所在国:
美国
制造商(研发单位):
太空探索技术公司
制造商所在国:
美国
使用方式:
暂无
卫星简介
星链(Starlink)计划是由太空探索技术公司(SpaceX)提出的一个巨型低轨卫星互联网星座项目,计划在2019年至2024年间在太空搭建由约1.2万颗卫星组成的“星链”网络,其中1584颗将部署在地球上空550千米处的近地轨道,并从2020年开始工作。该卫星仍在工作。
2D轨道图
3D轨道图
轨道高度分析图
轨道倾角分析图
轨道综合分析图
查看轨道综合分析图